RH
7 3 3 3 2 3 2 2 1 1 2 1 2 2 3 4 4 4 4 3 3 3 3 3 3 4 4 4 4 4 4 4 5 4 4 4 4 4 4 4 4 4 4 4 4 4 4 5 5 5 5 5 6 6 6 6 7 6 9 14 16 16 14 10 9 9 10 9 8 9 10 10 10 10 11 10 10 11 10 11 11 11 11 11 10 10 10 10
15 8 4 4 3 2 2 2 2 1 2 2 2 3 4 4 5 4 4 3 3 3 3 3 3 4 4 4 4 4 5 4 5 4 4 5 4 5 4 4 5 4 4 4 4 5 5 5 5 5 5 5 6 6 7 7 7 7 8 13 13 11 9 8 9 9 9 9 9 10 11 11 11 11 11 11 12 12 12 13 13 12 11 11 10 10 11 12
26 20 13 7 4 3 2 1 2 2 2 2 2 3 4 5 5 4 4 3 3 3 3 3 4 4 4 4 5 4 5 5 5 5 4 5 4 5 5 5 5 5 5 5 4 5 5 5 5 5 5 6 6 6 7 7 7 7 8 13 13 8 8 9 9 9 10 10 11 11 12 12 13 13 12 13 13 13 14 14 14 12 11 12 11 11 12 12
29 31 26 15 6 3 3 2 2 2 2 3 4 4 5 5 5 4 3 3 2 3 3 4 4 4 5 4 5 5 5 5 5 5 5 5 5 5 5 5 5 5 5 5 5 5 5 5 5 6 6 6 6 7 7 7 7 8 8 10 10 8 9 9 9 10 10 11 12 12 13 13 14 13 13 14 14 15 16 15 14 14 12 12 12 12 13 13
28 31 34 27 14 6 3 2 2 3 3 3 4 4 5 5 5 4 3 3 2 3 3 4 5 5 5 5 5 5 5 8 7 5 5 5 5 5 5 5 5 5 5 5 6 6 5 6 6 6 6 6 7 7 7 7 8 8 8 9 8 9 9 9 10 10 11 12 12 13 14 14 15 14 14 15 15 17 18 16 15 15 14 13 13 13 13 12
30 30 34 35 28 18 10 6 3 4 3 2 3 4 5 5 5 4 3 3 3 3 4 4 5 5 5 5 6 5 6 11 9 5 5 5 5 6 5 5 5 5 5 6 6 6 6 6 7 7 7 7 7 8 8 8 8 8 8 9 9 9 9 10 10 10 11 12 12 13 14 14 15 15 14 15 16 17 16 15 16 16 15 14 14 14 13 13
32 31 32 36 36 30 19 11 6 3 2 2 2 2 4 5 4 4 3 3 3 4 4 4 5 6 6 6 7 7 7 8 6 5 5 5 6 5 6 5 6 6 6 6 6 6 7 7 7 7 7 8 8 8 8 8 8 9 9 9 10 10 10 10 11 11 12 12 13 13 14 15 16 15 14 14 15 15 15 15 15 15 14 15 15 15 14 15
33 32 31 32 37 35 23 15 9 4 2 2 3 2 4 5 4 4 3 4 4 4 5 5 6 7 7 7 7 6 6 6 5 6 6 6 6 6 6 6 6 6 6 7 7 7 7 7 7 8 8 8 9 9 9 9 9 9 10 10 10 10 10 11 11 12 12 13 14 13 14 15 15 16 15 14 15 14 16 16 16 15 15 17 17 16 16 17
34 35 31 30 36 37 28 19 10 4 3 2 3 3 3 5 5 4 3 4 5 5 6 7 7 7 6 6 6 6 6 6 6 6 6 6 7 6 6 7 7 7 7 8 8 8 8 8 8 8 9 9 9 9 9 10 10 10 10 10 11 11 11 12 13 13 13 14 14 14 14 14 15 16 15 15 15 16 17 18 18 17 17 18 18 18 19 19
33 36 34 28 31 34 28 21 10 3 3 2 2 3 4 5 5 4 3 4 5 6 6 6 6 6 6 6 6 7 7 6 6 7 7 7 7 7 8 8 8 8 8 9 8 9 9 9 9 9 9 10 9 10 10 10 11 11 11 11 12 12 12 13 13 14 15 14 15 14 13 14 15 16 16 16 16 16 17 19 20 19 18 20 21 20 20 20
39 38 37 30 27 27 22 18 11 4 2 3 3 3 4 5 6 4 3 4 5 6 6 6 6 6 6 7 6 7 7 7 7 7 7 8 8 8 8 9 9 9 9 9 9 10 10 10 10 10 10 10 10 10 11 11 11 11 12 12 12 13 13 14 15 15 15 15 15 15 13 14 17 17 17 18 17 17 17 19 20 19 19 20 22 22 21 20
50 45 42 34 24 18 15 14 11 6 3 3 4 4 4 5 6 5 4 4 4 5 6 6 6 6 6 6 7 7 7 7 7 8 8 8 9 8 9 9 10 10 10 10 10 10 10 10 10 10 11 10 11 11 11 11 11 12 12 12 12 13 14 14 15 16 15 16 16 16 14 14 18 17 17 19 19 18 17 18 20 19 20 22 22 22 21 20
57 52 43 32 19 12 12 10 8 6 3 2 3 5 6 6 6 6 6 5 5 5 5 6 6 6 6 6 7 7 7 8 8 8 8 8 9 9 9 10 10 10 11 11 11 11 10 11 11 11 11 11 11 11 11 12 12 12 12 13 13 15 17 16 16 17 15 16 17 18 16 14 18 17 15 19 20 18 16 17 19 19 21 23 22 21 21 23
52 49 37 28 21 15 12 9 6 5 3 3 3 3 5 6 6 6 6 6 6 5 5 6 6 6 7 7 7 8 8 8 8 8 9 9 9 9 10 10 11 10 11 11 11 11 11 11 11 11 11 11 11 11 11 11 11 11 12 16 16 18 21 17 16 17 17 17 17 20 18 14 19 20 16 19 20 18 16 17 19 21 22 23 22 22 22 24
47 44 35 28 21 13 9 8 8 6 4 3 2 2 4 6 7 6 5 6 5 5 5 6 6 6 7 7 8 8 8 8 9 9 9 9 10 10 10 10 11 11 11 11 10 10 10 10 10 10 10 10 10 11 10 9 11 12 15 20 20 20 22 18 16 17 18 18 17 20 19 14 17 19 17 19 19 17 17 18 21 22 22 23 22 22 24 26
47 42 32 19 12 8 6 7 9 9 5 3 3 2 2 4 7 7 5 5 5 5 6 6 7 7 7 8 8 8 8 9 9 9 9 10 10 10 10 10 11 11 11 11 10 10 10 10 10 10 10 10 11 10 10 13 18 19 17 21 23 20 20 21 18 16 19 19 17 19 18 12 13 16 18 19 17 17 18 19 21 21 22 23 21 20 23 24
38 34 22 10 12 10 6 6 8 8 5 3 4 3 3 3 5 7 6 5 5 5 6 7 7 7 8 8 8 8 8 8 8 9 9 9 9 10 10 11 11 11 11 11 11 10 10 10 10 10 9 10 10 10 13 18 20 19 18 21 23 20 19 23 21 16 18 19 17 19 17 11 12 15 18 20 18 17 18 20 20 21 23 22 19 18 19 18
28 31 24 17 17 11 7 8 6 4 5 5 5 5 4 4 5 6 7 5 5 5 6 7 7 8 11 9 8 8 8 8 8 8 8 8 9 9 9 10 10 10 10 10 10 11 10 11 10 10 11 11 10 11 16 19 17 17 19 20 22 20 19 25 25 20 20 20 17 18 17 11 10 14 18 20 19 18 19 20 21 23 23 19 16 16 16 18
29 33 29 25 22 14 9 11 10 5 5 7 7 7 6 5 6 6 7 6 5 6 6 7 7 9 12 11 9 9 8 8 8 8 8 8 8 8 8 9 9 9 10 10 11 11 11 10 11 13 16 15 11 12 14 15 15 17 18 20 22 21 19 23 23 20 21 21 18 17 16 12 11 15 17 18 19 19 20 21 23 25 22 16 15 16 18 22
34 34 31 29 26 18 10 12 20 12 5 9 9 8 8 7 7 7 7 7 6 6 6 7 8 9 10 9 10 10 8 8 8 8 8 8 8 8 8 8 8 9 9 10 10 10 10 11 12 14 16 14 12 13 13 13 15 16 18 20 21 21 21 21 21 19 20 21 18 17 16 12 12 15 17 18 19 19 20 22 25 26 21 17 16 17 20 23
31 31 30 27 20 15 7 14 29 19 6 9 9 8 9 7 8 7 7 7 6 6 5 6 7 8 9 8 9 9 8 8 8 8 8 8 8 8 8 9 9 9 9 9 10 9 9 10 11 12 12 12 12 13 13 14 15 16 19 20 20 23 25 24 22 19 20 22 19 17 17 14 13 15 17 19 19 20 21 23 27 27 23 19 18 20 22 24
18 17 19 17 11 9 6 13 29 23 11 9 9 9 8 8 8 7 8 7 7 7 5 6 6 7 9 9 9 9 8 8 7 8 8 8 8 8 9 8 8 10 9 9 10 10 11 13 12 10 11 13 12 13 14 15 16 17 18 21 24 26 27 26 24 21 21 22 19 18 19 16 15 15 17 19 19 20 23 24 28 29 25 22 22 24 25 27
8 10 11 10 7 9 8 8 15 18 15 12 10 9 9 8 8 7 8 7 7 8 7 7 7 7 8 8 9 9 8 8 7 8 7 8 8 8 8 9 9 10 10 10 10 10 13 14 12 10 11 12 13 14 15 16 17 18 18 21 26 27 26 27 27 24 23 23 20 20 21 18 17 17 17 20 20 21 24 26 30 30 26 25 26 27 27 30
7 9 8 8 8 9 11 8 8 11 14 13 11 11 9 8 8 7 7 7 7 8 7 8 8 8 8 8 8 8 8 8 8 9 9 9 9 9 9 9 9 9 10 10 10 10 11 10 10 10 11 12 14 15 15 18 20 21 20 21 24 25 25 26 27 25 24 24 23 23 24 21 19 19 19 21 21 23 25 27 32 30 26 28 29 28 30 35
6 7 6 7 9 11 12 11 10 11 12 13 12 11 10 9 8 8 7 7 7 7 7 8 8 8 9 9 10 10 10 10 10 10 11 10 10 10 9 9 10 10 10 10 10 10 9 9 9 11 12 12 14 15 16 19 21 25 25 22 23 24 25 25 26 26 27 28 27 26 27 24 20 21 22 22 22 24 25 30 33 30 27 30 33 35 41 44
6 6 6 8 12 13 13 13 13 13 12 12 11 11 10 10 9 9 8 8 8 8 9 10 10 10 12 13 13 12 12 12 11 10 10 10 10 10 9 10 10 10 10 10 10 10 10 11 12 12 12 12 14 15 16 18 22 26 25 23 24 25 25 26 26 29 31 30 26 25 29 28 22 23 24 23 24 25 27 31 32 29 30 35 39 44 48 48
7 6 7 11 14 13 13 14 13 13 13 12 11 11 10 10 9 9 10 11 11 11 11 12 12 12 13 13 13 12 11 12 10 9 9 9 9 9 10 9 10 10 10 11 12 13 12 13 12 12 12 13 14 16 16 18 23 26 24 24 25 25 26 26 27 31 33 31 27 25 28 29 25 24 24 24 26 27 29 33 33 33 36 40 46 51 49 46
6 7 9 12 14 14 14 14 13 12 12 11 11 11 10 10 9 8 10 11 11 11 13 14 14 14 13 12 11 10 9 9 8 8 8 8 8 9 9 9 10 11 10 11 13 13 12 12 12 12 13 14 14 16 17 20 23 25 24 25 25 25 26 26 28 31 33 33 30 27 28 29 25 23 24 25 26 29 32 34 36 38 40 45 50 52 48 44
6 9 12 13 13 14 13 13 13 13 12 11 11 10 10 10 8 9 11 10 11 12 14 14 13 12 11 10 9 8 8 8 7 7 7 7 8 9 9 10 10 10 11 11 12 11 11 11 12 12 13 14 15 16 19 21 23 24 24 25 25 25 26 27 29 32 37 37 31 27 28 28 24 21 23 25 25 29 31 34 38 40 42 47 50 48 45 43
7 10 13 14 13 14 13 13 13 12 11 11 10 9 9 9 10 13 14 11 13 14 13 14 13 10 10 9 8 7 7 7 6 7 7 8 9 9 9 10 9 11 11 10 12 13 13 13 13 13 14 15 16 18 19 22 24 25 25 25 26 27 28 30 31 33 38 36 31 28 27 28 28 23 23 26 27 29 30 33 38 39 39 44 45 43 42 43
7 10 12 13 12 12 13 13 12 10 9 8 7 7 7 8 10 13 12 10 13 14 13 13 12 10 9 8 7 7 7 6 7 7 8 8 8 8 9 10 12 13 12 15 19 18 15 15 14 14 14 15 17 19 21 23 25 25 25 27 30 31 32 34 35 37 37 33 30 29 28 31 32 25 23 29 31 30 30 31 34 35 36 39 41 41 43 45
6 9 10 11 11 12 12 11 10 9 7 6 6 5 6 10 12 12 11 10 12 13 12 11 10 9 8 7 7 7 6 7 7 8 8 9 9 9 10 12 14 16 17 20 22 19 18 17 15 15 16 17 19 21 24 25 25 26 27 31 33 29 29 32 32 32 31 30 30 29 29 33 31 26 28 31 32 32 31 31 32 34 37 38 39 41 43 45
9 11 10 11 10 10 11 10 9 8 6 6 5 4 7 10 11 10 9 9 11 11 9 9 9 8 8 7 7 7 7 8 8 9 10 10 10 10 11 12 13 17 19 18 19 20 21 21 20 19 18 18 19 22 26 28 29 30 31 33 33 29 32 37 32 28 28 29 31 32 34 34 29 28 31 31 31 32 32 34 34 36 38 39 40 41 43 44
24 25 21 18 14 10 9 8 8 8 6 6 5 5 8 9 8 7 7 8 9 9 9 9 8 8 7 7 7 7 8 9 9 10 11 11 12 13 14 13 14 17 17 18 23 25 23 23 22 19 18 19 19 21 24 26 28 32 30 31 33 31 35 38 33 33 35 33 34 37 37 34 29 31 33 32 33 34 34 35 37 39 41 41 42 44 45 46
45 41 34 30 23 16 12 9 8 8 7 7 5 6 10 11 9 7 7 8 9 9 10 9 8 8 7 7 8 9 10 11 11 11 11 12 14 15 15 15 16 17 18 21 25 25 24 24 21 19 19 19 20 22 23 24 28 32 29 29 34 34 34 35 33 35 40 39 39 39 36 30 27 32 34 34 35 36 37 36 37 40 41 42 44 46 47 48
54 46 39 35 27 19 14 11 9 7 7 7 5 9 12 9 7 7 8 9 10 10 10 9 9 8 8 9 9 9 11 12 11 12 13 13 14 15 16 17 18 18 19 22 24 23 24 25 22 21 21 20 21 23 24 27 30 32 31 33 36 35 35 37 36 36 40 42 39 36 34 30 28 31 35 39 40 39 38 37 36 37 40 43 46 47 49 50
46 41 38 33 23 14 10 9 8 7 7 6 6 9 9 7 7 9 9 10 11 10 9 10 10 10 10 12 12 11 12 13 13 14 15 15 15 16 17 18 19 19 20 22 25 26 26 25 23 22 21 21 21 23 25 27 29 31 34 35 35 35 36 38 40 38 39 41 37 31 32 34 32 31 36 41 41 38 37 37 38 40 43 46 47 48 51 50
35 37 36 28 18 10 6 6 6 6 6 6 7 8 8 8 9 9 10 10 10 9 9 11 12 12 12 12 13 12 13 16 16 16 17 18 17 17 18 18 19 20 21 22 25 26 26 27 27 25 24 23 23 25 27 29 29 31 34 35 34 37 39 38 42 44 45 45 39 34 34 36 35 34 37 40 39 38 41 42 44 47 47 47 48 49 51 48
34 35 31 24 16 9 6 6 6 6 6 7 9 9 9 10 10 10 10 9 9 9 10 11 12 12 12 13 14 13 14 16 16 17 19 19 18 18 19 20 21 22 22 23 24 24 27 31 29 26 26 26 26 27 29 32 33 32 34 35 35 39 40 40 43 44 44 45 43 43 41 36 36 38 39 41 42 44 48 50 51 52 51 51 52 54 54 49
36 34 27 21 15 8 6 7 6 7 7 9 10 11 10 10 9 9 9 8 9 10 10 11 12 12 13 14 15 16 16 16 16 18 19 18 19 20 21 21 22 23 23 24 24 24 28 33 31 29 28 29 30 30 30 31 34 36 39 41 42 43 43 44 44 41 41 42 43 47 45 37 37 40 40 43 48 52 57 59 58 57 55 54 56 59 57 48
30 28 22 17 12 7 7 8 6 7 8 9 11 10 10 10 9 9 9 9 10 10 11 11 12 14 15 16 17 17 18 17 17 18 19 19 20 21 23 23 23 24 24 24 24 25 29 34 35 34 32 31 31 31 29 29 33 37 40 43 45 46 45 45 45 45 45 45 44 49 50 42 40 43 44 47 53 58 62 61 58 58 56 57 60 62 58 47
23 22 17 14 10 7 7 7 7 9 10 10 10 9 9 9 9 9 9 9 10 10 11 12 14 16 16 17 18 18 19 19 18 19 19 20 22 22 23 24 24 25 25 25 26 27 28 31 34 35 33 31 29 28 28 28 31 33 36 38 39 43 47 46 46 49 51 50 48 50 53 48 44 45 48 52 57 62 65 62 58 58 61 63 63 59 55 43
17 15 12 10 8 7 7 8 9 10 9 9 9 9 9 9 9 9 9 9 11 12 13 15 16 17 17 18 18 18 20 21 20 20 21 21 22 24 24 25 26 26 26 27 28 29 30 32 36 36 33 32 31 30 29 29 33 36 38 38 38 43 48 47 48 52 55 54 50 50 52 48 44 48 52 58 63 65 66 63 61 63 65 66 65 60 51 34
11 9 8 8 8 8 9 9 10 9 9 8 8 9 9 8 8 9 10 12 14 14 16 16 16 17 18 18 19 20 21 23 23 21 22 23 24 25 26 26 27 27 28 30 30 31 32 34 39 39 34 32 32 33 34 35 38 41 42 42 42 44 48 50 52 55 56 56 52 51 52 45 44 51 56 61 67 68 66 64 65 68 67 64 63 55 39 35
8 8 8 8 9 9 9 10 10 9 8 8 7 7 7 8 9 11 13 15 16 17 17 17 18 19 19 20 21 21 21 23 24 23 23 25 25 25 26 27 28 28 30 31 32 33 33 33 37 39 38 37 35 37 41 41 38 39 42 45 45 45 48 50 54 57 57 56 55 54 53 51 54 59 62 67 72 69 63 61 65 70 70 67 61 48 41 57
8 9 9 10 10 9 9 9 8 7 7 7 7 7 9 11 13 15 16 16 17 19 19 19 20 20 21 22 22 22 22 23 24 24 24 25 25 26 26 27 28 28 29 30 31 33 34 32 33 36 38 38 36 37 41 41 38 38 42 45 45 46 48 51 56 60 58 60 62 59 58 62 63 64 70 78 81 75 69 70 75 78 78 72 55 42 52 72
9 9 9 9 8 8 8 7 6 6 7 8 10 12 13 15 16 17 18 18 20 21 21 21 22 22 23 23 23 22 23 22 23 23 23 24 25 25 26 27 27 28 29 30 31 33 35 33 32 34 35 35 36 37 39 41 42 42 42 43 45 48 53 57 60 62 66 71 66 60 64 70 68 69 81 90 88 83 84 89 91 86 80 66 43 38 52 62
8 7 6 6 6 6 6 6 7 9 11 13 15 16 16 17 18 19 20 21 22 23 23 22 23 23 23 23 24 23 23 23 23 23 23 24 24 25 26 26 27 28 29 30 31 33 35 34 32 33 33 35 37 37 38 42 43 43 44 47 52 58 61 62 61 64 74 78 70 68 76 78 76 81 89 92 91 89 91 94 91 84 71 47 33 45 57 51
5 4 5 5 6 7 8 9 11 13 15 16 17 17 19 20 21 22 23 23 22 23 23 23 23 22 22 23 23 23 24 24 24 23 24 24 25 25 26 26 27 29 29 31 32 33 38 37 34 35 36 34 36 39 41 43 45 48 50 54 62 67 65 65 64 66 75 80 77 77 77 75 82 91 87 83 86 88 90 88 79 70 51 30 41 65 57 33
4 6 7 9 10 12 13 14 16 17 17 18 18 20 21 21 22 23 23 23 22 22 22 23 22 22 22 23 23 23 24 24 25 25 25 26 26 26 27 28 28 29 30 31 32 33 40 40 36 39 40 36 38 42 43 47 50 52 56 63 70 71 69 68 66 68 77 81 76 76 77 77 80 80 74 78 86 85 81 73 62 48 30 34 71 86 51 20
10 12 13 14 15 16 16 17 18 18 18 19 20 21 22 23 23 23 23 23 23 22 22 23 22 23 23 24 24 24 25 25 26 27 27 28 27 27 29 29 30 30 30 31 32 34 40 41 40 45 48 46 44 44 47 53 53 51 59 71 76 76 74 72 71 75 81 80 77 81 86 83 73 62 62 77 91 88 74 61 45 27 25 55 89 76 35 21
15 16 16 17 17 17 18 18 19 20 20 21 22 23 23 24 24 23 23 23 23 23 23 23 24 24 25 25 25 25 26 27 27 26 27 28 27 27 29 29 30 31 31 32 34 36 39 42 47 54 56 51 47 45 48 54 54 55 62 67 69 72 74 73 71 71 73 76 80 80 75 70 67 62 62 73 82 78 66 50 33 32 57 85 82 49 26 29
Wind_Speed
14 13 11 11 10 10 10 11 11 11 10 10 9 8 7 7 7 7 7 7 8 8 8 8 8 8 8 8 8 7 6 5 4 4 4 3 3 3 3 3 3 2 2 1 1 2 3 4 4 5 5 7 8 9 10 11 11 10 8 6 6 7 8 10 12 13 13 16 17 16 17 18 19 19 19 20 20 22 22 22 23 23 22 23 24 23 22 21
15 14 12 11 10 9 10 10 10 10 10 10 9 8 7 6 6 6 6 6 8 8 8 8 7 7 6 6 6 5 5 4 3 2 3 3 2 2 2 2 2 1 1 1 1 2 3 4 5 6 7 8 9 9 10 11 11 10 9 7 8 11 11 13 14 14 15 16 17 17 18 18 19 19 19 21 22 23 23 22 24 24 23 23 25 23 22 20
14 13 13 11 10 9 9 9 8 8 8 8 8 8 7 6 5 5 5 6 7 7 7 7 6 5 5 5 5 4 3 3 2 2 2 1 1 1 1 1 1 0 0 1 2 3 3 5 6 7 8 8 9 10 11 12 11 11 10 6 10 13 13 14 15 15 15 16 18 18 18 18 19 20 21 21 22 24 24 22 23 25 24 23 24 23 21 19
12 12 12 11 10 9 8 8 7 7 6 7 8 8 7 6 5 5 5 5 6 7 7 6 5 4 4 4 3 2 2 2 2 2 2 1 1 1 1 2 1 1 1 2 3 4 5 7 8 8 8 9 9 10 11 12 12 12 11 9 12 14 14 15 15 16 16 16 18 18 19 19 19 20 22 22 23 23 24 25 24 26 25 23 24 21 19 18
10 10 10 10 9 8 7 7 6 6 6 6 7 7 6 6 5 4 4 5 6 7 6 6 4 4 3 2 2 2 2 2 2 3 3 3 3 3 3 3 3 3 3 4 5 6 7 8 8 8 8 9 10 11 12 12 12 12 12 11 13 14 15 16 16 16 17 17 18 19 20 20 20 21 21 22 22 20 24 28 27 26 24 22 21 19 17 17
9 9 9 8 8 7 7 5 5 5 5 4 5 6 6 5 4 4 4 4 6 6 6 5 4 3 3 2 2 3 3 4 5 4 3 4 4 4 4 4 4 4 4 5 6 7 8 8 8 8 8 9 10 11 12 12 12 12 12 12 14 15 16 16 17 18 18 18 19 20 21 21 21 21 22 22 22 22 25 26 25 23 20 18 18 18 16 16
7 7 7 7 6 6 6 4 3 3 3 3 3 4 5 4 4 3 4 4 5 6 6 5 4 3 3 3 3 3 4 4 3 3 3 4 4 5 5 5 5 5 6 6 7 7 8 8 8 8 9 10 11 11 11 12 13 12 12 13 15 15 16 16 17 18 19 19 20 21 22 23 22 22 23 22 21 22 22 20 19 17 16 17 17 17 17 16
5 5 5 5 4 4 6 5 2 2 2 2 2 3 4 4 4 4 4 5 5 5 4 3 3 3 4 4 3 3 3 2 2 2 3 4 5 5 5 6 6 6 7 7 7 8 8 8 8 8 9 10 11 11 11 13 13 11 13 15 15 16 16 17 18 19 19 20 21 22 23 24 23 23 21 18 20 22 22 20 17 15 15 17 17 17 17 16
4 2 3 4 3 3 4 5 3 1 1 1 2 2 2 3 4 4 5 5 4 3 3 4 4 4 4 3 3 2 2 2 2 3 3 4 4 5 5 6 6 7 7 8 8 8 8 8 8 9 9 10 11 10 12 13 12 12 14 16 16 16 16 18 19 19 20 20 21 23 24 26 25 21 16 17 21 23 23 22 18 16 16 17 17 16 16 15
6 4 1 1 2 2 3 4 3 1 1 1 1 1 1 2 4 4 5 5 3 4 4 4 4 4 4 3 3 3 4 4 3 3 4 4 4 4 5 6 6 7 8 8 9 8 8 8 8 9 9 10 10 11 13 12 12 14 15 16 16 16 16 18 20 20 21 21 22 24 24 28 25 16 16 21 22 22 23 22 19 17 17 18 17 16 16 14
9 7 5 2 2 3 4 3 2 1 2 2 1 1 1 2 4 5 5 5 4 4 4 4 5 5 5 4 4 5 5 4 4 4 4 4 5 5 5 6 7 8 8 9 9 8 8 9 9 9 10 10 11 12 13 11 13 14 15 16 16 16 16 17 19 21 22 23 23 24 24 25 22 17 20 23 22 23 24 23 21 18 17 18 17 16 15 13
10 9 8 5 3 4 4 3 2 1 2 2 1 1 2 3 4 5 6 6 6 5 5 6 6 6 5 5 5 5 5 5 4 4 5 5 5 6 6 7 8 8 9 9 9 9 9 10 10 10 10 11 12 13 12 13 15 14 15 17 16 17 18 17 20 22 23 23 24 24 24 22 22 23 23 23 25 26 26 25 22 19 17 17 16 14 12 11
8 9 8 5 3 3 3 3 2 2 3 3 2 2 2 3 4 5 6 7 7 7 7 7 7 6 7 6 6 5 5 5 5 5 5 5 6 7 7 7 8 9 9 9 10 10 10 10 11 10 11 11 12 13 13 15 15 15 16 16 16 17 17 19 22 23 23 22 24 23 23 23 25 28 25 24 28 28 27 26 21 18 17 17 15 11 10 10
4 7 6 4 2 3 3 2 2 3 3 4 4 2 2 3 4 4 5 7 8 8 8 8 8 8 7 6 6 6 5 5 5 5 5 6 6 7 7 8 8 9 9 10 10 10 11 11 11 11 11 12 13 13 14 15 14 15 15 15 18 15 13 21 23 22 23 23 23 23 24 23 22 28 29 27 29 29 27 23 20 18 17 15 11 8 9 9
3 5 4 2 2 3 3 2 2 3 4 5 5 4 3 4 4 4 5 6 7 7 7 8 9 9 7 6 6 6 6 6 5 5 6 6 6 7 8 8 9 9 10 10 11 11 11 12 12 12 12 12 14 14 16 17 15 15 13 12 16 15 15 24 24 23 24 23 25 24 24 25 23 27 30 29 30 30 25 20 18 18 17 13 8 7 8 8
4 4 3 2 2 3 3 3 3 4 4 4 5 5 5 5 5 5 5 6 7 7 7 8 9 9 7 6 6 6 6 5 5 6 6 6 7 8 8 9 9 10 10 11 11 11 12 13 13 13 13 14 14 15 17 15 12 14 16 13 15 19 20 22 23 24 23 23 26 24 26 28 26 27 28 29 30 27 22 18 17 17 15 9 7 7 8 7
3 3 1 3 3 4 4 4 4 4 4 4 4 5 6 6 6 5 6 7 7 7 7 8 8 8 7 6 7 7 6 6 6 6 6 7 8 8 9 10 10 11 11 12 12 13 13 14 14 15 15 14 15 16 15 10 8 12 17 16 15 21 23 21 24 26 24 25 26 27 30 28 26 28 27 28 30 26 19 16 16 14 10 7 7 7 7 6
3 3 2 4 5 6 5 4 4 3 3 4 4 5 6 6 6 6 7 8 8 9 9 9 8 7 6 6 7 7 7 7 7 7 8 9 9 10 11 11 11 12 13 14 14 14 15 15 16 17 16 16 16 16 13 10 13 16 18 18 18 21 23 20 23 26 25 26 26 28 31 30 28 27 25 25 27 23 15 14 13 10 8 6 6 6 5 4
3 4 4 5 6 6 4 4 4 4 4 4 4 5 5 6 6 6 7 8 9 9 9 9 8 7 7 7 7 8 8 8 9 9 9 10 11 12 12 13 13 14 14 15 16 15 16 17 17 16 13 15 18 17 15 16 18 19 19 20 20 23 24 20 24 26 25 28 28 29 32 32 29 26 26 24 20 16 13 12 10 9 7 5 5 5 4 4
3 5 6 6 6 6 5 5 4 4 4 4 4 5 5 5 6 6 7 9 10 10 11 11 10 9 9 10 10 10 10 10 10 11 11 12 13 14 14 15 15 16 15 16 17 17 17 18 18 16 15 17 20 19 19 19 19 20 21 21 22 25 24 22 26 26 26 30 30 31 33 31 28 27 26 18 11 11 11 10 10 9 6 4 4 5 5 6
5 5 6 6 6 5 5 4 4 3 4 4 5 5 4 5 5 6 7 8 9 11 11 12 11 11 11 11 11 11 11 12 12 13 13 14 15 16 16 16 17 18 18 17 18 19 19 19 19 18 18 20 21 20 20 20 21 21 21 22 24 23 22 23 26 26 28 31 33 34 34 31 26 25 19 9 8 11 10 9 11 9 6 4 5 7 7 7
4 4 5 4 4 5 4 3 2 2 4 5 5 5 5 5 5 6 7 8 8 10 11 11 11 11 12 12 13 13 13 13 14 15 15 16 17 17 18 19 19 19 20 20 19 20 20 19 20 20 21 22 22 21 21 21 22 22 22 22 20 18 21 22 24 27 28 31 35 33 33 31 20 14 10 7 11 11 9 11 13 10 7 6 6 7 7 8
2 2 2 3 4 4 4 3 2 3 3 4 5 6 5 5 6 6 7 8 9 9 10 11 11 12 12 13 13 13 14 15 16 17 17 18 18 18 18 19 20 20 21 20 20 20 19 18 22 24 23 23 22 21 22 23 23 23 23 21 18 18 21 21 24 29 28 31 33 30 34 29 9 3 8 11 14 11 10 12 13 10 8 7 7 7 8 9
1 2 2 4 5 4 4 3 3 3 4 4 4 5 5 6 6 6 8 9 10 10 11 11 12 12 13 13 13 14 15 16 17 17 17 16 17 17 18 19 20 21 21 21 21 21 22 23 25 24 22 22 23 23 24 23 23 23 24 23 21 21 22 23 27 31 30 27 25 25 31 21 3 2 11 15 15 11 12 12 12 9 8 8 8 9 10 12
1 2 3 4 4 4 4 4 3 3 4 4 4 4 5 5 6 7 8 9 9 10 10 10 11 12 12 11 12 13 15 15 16 16 15 15 16 18 19 20 20 21 22 22 23 25 26 26 23 22 22 23 25 26 25 24 23 20 21 24 22 21 23 26 27 29 27 19 16 21 19 8 3 6 13 17 15 12 13 11 10 8 10 11 11 10 10 12
2 3 3 3 3 3 4 3 3 3 3 3 4 4 5 5 6 7 9 9 9 9 8 8 8 9 9 9 10 12 13 13 13 14 15 15 17 19 20 20 20 22 23 24 25 26 26 24 22 23 25 26 26 26 25 24 22 19 21 24 22 22 25 27 26 26 20 14 20 23 12 7 12 12 13 16 15 13 12 9 8 8 11 12 11 9 9 13
2 3 2 2 2 3 3 3 2 2 3 4 4 5 6 6 6 7 8 6 6 7 7 5 5 6 7 7 8 10 12 12 14 14 15 17 18 19 21 22 22 23 24 24 24 24 25 25 25 26 27 27 27 26 26 24 21 20 22 24 22 24 25 25 25 24 21 20 23 19 9 11 15 13 11 13 11 9 6 6 6 7 7 6 5 6 13 17
2 2 1 1 2 2 2 3 3 3 4 5 6 7 7 7 8 8 6 3 4 5 5 4 4 5 5 6 8 11 13 15 16 16 17 20 20 21 22 22 22 24 25 24 24 26 28 27 26 26 26 26 26 25 24 23 22 22 23 22 22 24 25 24 25 23 20 17 13 9 6 8 11 11 11 9 4 1 2 4 4 3 2 2 2 7 16 20
2 2 1 0 1 1 2 4 4 4 5 6 7 7 8 8 8 7 3 3 4 4 4 4 4 4 5 8 12 15 16 17 18 19 20 20 19 20 20 21 22 24 23 23 26 27 26 24 24 24 23 24 24 23 23 22 23 22 20 21 23 25 24 22 20 16 12 9 6 7 4 4 11 13 7 2 3 3 1 2 3 3 5 7 9 14 18 22
2 2 2 1 1 2 3 4 4 4 4 5 7 7 8 8 7 4 3 3 5 7 7 6 5 6 10 14 17 18 19 20 19 19 18 17 17 17 19 21 22 22 23 23 24 23 22 21 22 22 22 23 23 23 23 22 20 19 19 22 24 24 21 17 13 9 6 5 5 7 5 3 8 8 2 1 3 5 3 6 7 8 12 13 14 17 20 24
2 2 2 2 3 3 3 4 4 3 4 5 7 8 9 8 5 3 4 4 7 7 7 6 7 11 16 19 20 21 21 19 18 17 16 16 17 18 20 21 21 23 23 19 17 18 20 21 21 21 20 21 21 21 20 18 16 16 18 20 19 16 13 9 7 5 5 3 5 5 7 5 7 8 6 6 9 10 8 12 13 14 15 16 16 18 23 26
3 2 3 3 4 4 4 5 5 4 5 6 8 9 10 7 4 4 5 6 5 4 6 9 13 16 18 20 21 21 19 17 16 16 17 17 19 20 20 18 19 20 16 11 14 20 22 21 18 16 15 16 16 16 16 16 16 17 18 15 12 10 8 6 4 4 6 2 2 5 9 8 15 16 10 9 11 12 12 14 15 16 17 17 19 22 26 29
3 3 3 4 5 5 5 6 6 6 7 8 9 11 9 5 4 5 7 7 6 8 11 14 16 18 19 20 20 18 17 17 17 17 19 20 21 20 18 18 18 16 13 15 18 17 15 14 11 10 12 12 12 12 11 12 15 18 16 10 8 8 7 7 6 6 8 2 1 10 12 12 16 12 7 10 12 11 14 17 17 18 18 19 22 26 30 33
3 4 5 5 6 6 7 8 8 8 10 11 12 12 9 5 5 7 9 9 10 12 14 15 17 19 19 18 17 16 16 17 18 19 21 20 19 19 20 19 16 13 14 16 14 10 10 11 10 10 11 11 13 14 14 16 18 18 13 8 8 7 6 8 7 7 10 8 7 11 10 8 8 6 8 13 9 6 9 13 14 16 20 25 29 32 34 37
6 6 7 7 7 8 9 9 10 11 12 12 13 12 8 6 7 9 11 11 11 13 15 17 19 19 18 16 15 15 18 19 20 21 21 19 18 19 18 15 11 12 13 11 10 11 11 11 9 9 12 17 20 20 20 20 16 12 11 8 7 9 9 12 14 14 14 11 8 9 10 11 10 9 13 13 9 6 8 11 13 19 26 31 33 34 35 37
7 7 8 9 9 9 10 10 11 12 12 13 13 11 8 9 11 11 12 12 13 15 17 18 18 17 15 15 16 18 19 20 21 21 20 20 20 17 12 11 11 13 13 12 13 12 10 10 11 13 19 23 21 19 19 16 11 12 13 8 10 12 12 13 14 13 11 9 8 9 12 14 13 10 10 8 8 11 14 17 21 25 30 33 34 34 34 38
7 7 8 9 9 9 10 10 11 12 12 13 12 11 12 13 12 11 12 13 15 17 18 17 16 14 13 14 17 20 21 20 20 19 19 20 18 13 11 12 14 14 13 12 12 11 13 19 20 19 21 20 17 18 18 16 15 15 13 11 13 13 9 7 7 6 7 7 8 9 12 13 13 8 8 7 13 18 21 25 28 31 33 34 34 35 36 41
7 8 9 9 9 9 9 9 10 11 11 12 13 13 13 12 11 12 13 15 16 16 16 15 13 13 14 16 20 21 20 18 19 20 19 17 13 11 13 15 14 12 11 12 12 14 17 19 19 17 18 18 18 19 19 18 18 15 14 15 13 9 6 5 4 6 7 6 8 10 11 13 14 10 8 11 17 22 26 30 32 34 35 35 36 37 38 44
8 9 9 10 11 9 8 9 9 10 11 12 12 12 11 12 13 13 14 15 15 16 15 14 13 14 16 18 20 20 19 17 18 18 16 12 11 13 15 15 11 10 13 16 16 18 16 13 14 17 20 21 21 19 15 14 16 16 15 15 13 10 10 9 9 9 8 7 9 8 6 8 9 8 9 13 20 24 27 31 34 35 35 36 37 39 42 49
8 9 10 12 12 10 9 9 10 10 11 11 11 11 12 13 14 14 14 15 14 14 14 14 14 16 17 18 18 19 20 18 17 17 15 13 14 14 13 11 12 15 18 18 17 19 16 11 13 19 23 21 19 17 15 14 16 15 12 11 12 10 9 11 14 15 12 9 7 6 6 6 7 10 15 18 20 23 24 30 34 34 36 38 39 41 47 54
9 11 11 12 12 11 11 11 11 11 10 10 11 12 13 13 14 13 13 14 14 13 14 14 14 15 16 17 18 18 18 18 18 16 14 13 13 12 12 14 17 19 19 19 18 18 14 12 16 21 22 19 17 19 22 23 19 14 9 8 9 9 10 11 10 10 11 10 9 9 9 11 16 20 20 16 19 21 24 32 36 38 40 41 41 44 50 57
10 11 11 11 11 12 13 13 12 11 11 11 12 12 13 13 13 13 13 13 13 14 14 14 14 14 15 15 16 17 17 17 17 14 12 13 14 13 15 18 19 19 19 19 17 16 15 16 20 22 22 22 21 19 20 20 15 10 8 9 11 11 11 11 9 8 8 11 15 14 12 16 20 14 10 14 21 22 28 36 40 42 42 42 44 48 53 61
9 10 10 10 11 11 12 12 12 12 12 12 12 12 12 13 12 13 13 13 14 14 14 14 14 15 15 15 15 16 16 16 14 13 14 15 15 16 17 19 19 19 19 18 16 16 16 14 16 20 20 20 20 15 12 10 8 8 11 16 19 16 13 15 17 17 15 14 16 14 10 11 9 5 11 22 24 25 33 40 42 43 43 44 47 51 57 63
8 9 10 10 10 10 11 12 12 13 12 11 12 12 13 13 13 13 13 13 14 13 13 14 14 14 14 14 14 15 16 14 13 16 17 16 17 18 18 18 18 19 19 19 19 18 14 10 12 15 15 12 11 8 5 5 9 12 15 20 23 21 18 18 17 17 16 13 12 11 11 10 7 13 24 28 28 34 41 42 42 43 46 48 51 56 61 60
8 9 9 9 10 11 11 11 11 11 11 12 12 12 12 12 12 12 13 13 12 13 13 14 14 14 14 14 15 16 15 14 15 17 17 17 18 18 17 18 19 20 20 20 20 19 17 16 14 12 9 8 8 8 9 15 20 21 21 24 26 24 19 15 13 11 10 8 9 12 18 21 20 24 30 31 34 41 43 43 44 46 48 51 54 59 58 50
8 9 10 10 11 11 10 10 10 11 12 12 11 11 11 12 12 12 12 12 12 13 14 13 13 13 14 15 16 17 16 15 16 17 18 18 19 18 19 20 21 21 21 20 19 17 17 19 17 15 15 17 18 18 20 25 28 26 22 23 24 22 19 15 11 10 10 12 13 14 20 28 32 33 32 29 31 38 42 45 48 50 52 54 58 58 51 43
9 9 10 11 11 10 9 10 11 11 10 10 10 10 11 11 11 12 12 12 13 14 14 13 13 14 15 16 17 17 17 17 18 19 19 19 20 21 21 21 22 22 20 18 16 15 16 20 21 20 21 22 23 24 23 24 25 22 19 20 21 20 17 14 11 9 9 12 15 16 21 30 38 39 31 24 29 38 43 46 49 52 54 58 60 57 48 43
9 10 11 11 10 9 10 10 10 9 10 10 10 10 10 11 11 12 13 13 13 14 13 13 14 15 16 16 17 17 18 19 20 19 20 21 22 23 22 23 23 22 19 18 17 17 18 22 23 22 23 23 23 22 20 18 17 15 16 18 19 17 14 11 11 10 11 12 18 24 27 31 36 33 25 25 34 42 45 47 51 53 57 62 59 50 44 44
9 9 9 9 9 9 9 9 9 9 10 10 10 9 10 10 11 12 13 13 13 12 13 14 14 15 15 15 17 17 18 20 21 22 22 23 23 24 24 24 22 22 22 21 21 20 18 21 22 21 23 24 23 20 16 13 13 16 19 19 15 13 11 10 11 12 15 19 24 30 34 33 27 23 28 36 41 44 47 49 52 55 60 60 50 43 44 47
8 8 7 7 8 8 9 9 9 9 9 9 10 10 10 11 11 12 12 13 12 12 12 13 14 14 15 16 17 18 19 20 22 23 24 24 24 24 24 24 23 24 24 22 21 18 16 19 21 20 22 24 23 19 15 15 19 19 17 15 12 11 10 11 13 16 20 26 30 32 34 32 27 30 38 41 41 45 48 51 56 60 58 49 39 40 47 50
6 6 6 7 7 8 8 8 8 8 8 9 9 10 10 10 11 11 11 11 11 12 13 13 14 15 15 16 18 19 20 20 21 23 24 24 24 23 23 23 23 23 22 19 18 16 15 18 18 17 18 19 19 18 16 18 22 17 12 13 11 10 10 12 15 18 23 30 33 31 28 30 37 45 46 41 41 46 50 55 60 59 50 40 36 43 50 53
5 6 6 6 7 7 7 8 7 8 8 8 9 9 10 10 10 11 11 11 11 12 13 14 15 16 17 18 19 20 20 20 21 23 23 23 23 22 22 22 21 20 18 15 14 14 14 15 14 13 13 12 14 18 18 17 16 9 11 15 14 13 13 16 19 20 25 29 32 34 36 40 45 46 45 44 46 49 53 57 57 51 41 36 39 47 52 55
Wind_Direction
88 87 87 87 89 94 103 112 116 117 116 112 107 103 104 111 120 125 128 131 132 134 136 135 135 134 133 133 132 132 133 137 145 142 147 154 143 135 130 125 125 123 108 95 66 49 39 27 6 356 354 1 7 0 359 356 352 346 342 334 297 291 297 300 305 308 303 302 308 309 310 311 309 312 310 308 307 305 305 304 301 298 295 291 292 294 294 297
88 86 85 84 88 94 103 110 115 117 116 112 107 104 104 111 121 125 128 133 136 139 141 139 136 135 136 133 130 130 130 140 152 168 173 163 147 138 141 143 147 140 122 110 49 36 26 13 353 349 352 355 352 350 351 348 344 335 336 331 298 300 305 308 311 310 309 307 308 309 310 310 310 311 310 309 308 308 309 307 300 296 294 291 292 295 296 298
90 86 84 84 88 96 106 109 112 113 112 110 108 107 109 113 121 126 130 138 140 141 140 137 138 139 140 136 134 132 140 161 170 213 217 173 164 161 174 194 204 170 102 355 14 10 0 359 354 352 351 346 340 343 341 336 334 327 330 318 296 310 316 314 314 312 311 308 308 310 309 309 310 310 312 310 308 310 309 304 297 296 296 292 292 297 299 296
93 86 81 80 85 94 107 112 112 111 109 109 108 109 114 118 128 136 137 143 143 142 141 140 146 149 149 149 150 155 188 205 198 256 270 297 303 301 303 293 297 320 339 350 2 353 351 357 357 353 344 338 336 337 331 327 328 324 323 310 304 314 316 315 315 313 312 310 310 310 310 311 311 312 313 310 310 314 307 299 296 296 298 295 294 298 297 291
95 87 78 74 77 84 96 109 113 114 111 110 109 109 115 123 138 151 148 152 151 150 151 152 161 168 174 177 191 210 222 235 255 287 292 295 302 301 299 296 301 323 340 349 355 349 353 358 353 346 336 335 333 326 321 321 322 319 316 312 312 315 314 315 315 315 315 314 313 313 313 313 314 314 313 311 312 310 298 295 297 298 299 296 294 296 292 287
98 87 77 68 66 67 70 88 107 115 115 111 111 111 115 130 153 162 158 163 162 162 164 166 175 184 196 206 231 234 247 272 275 283 293 296 304 301 295 298 306 325 338 344 349 350 354 354 345 335 328 327 322 317 315 316 318 316 312 314 316 315 315 315 316 317 317 316 315 314 314 314 316 315 313 313 308 299 295 297 298 298 297 293 292 293 289 284
103 87 75 63 57 51 39 44 84 108 117 116 115 114 120 139 161 163 160 164 167 171 170 172 184 203 228 235 252 258 271 286 279 282 301 305 307 307 303 307 316 326 335 340 343 348 351 343 332 322 317 317 313 310 311 314 316 314 313 316 317 315 315 316 318 319 317 318 316 314 315 314 315 317 316 314 307 304 305 306 299 294 292 291 292 290 287 285
121 92 70 54 48 39 21 9 20 92 113 120 116 118 129 149 169 166 159 160 162 168 173 187 212 239 251 250 262 270 276 288 289 300 313 314 311 313 313 318 326 328 333 338 340 345 344 330 318 311 309 310 309 308 312 317 317 315 315 316 317 317 317 318 321 320 318 319 316 315 315 313 317 320 319 318 316 314 311 307 300 293 290 291 292 288 287 287
179 130 69 46 43 20 6 1 352 34 105 130 130 125 133 162 184 174 165 168 172 194 217 228 238 243 246 255 267 270 275 282 295 309 316 318 314 316 319 326 329 329 335 341 342 342 332 318 308 304 307 308 310 311 316 320 317 315 316 317 319 320 320 321 322 321 320 320 317 317 317 315 320 323 321 324 321 315 310 305 300 294 291 291 291 289 288 288
229 215 217 21 24 338 332 348 350 332 277 219 173 150 150 197 202 186 180 188 217 247 239 232 237 245 254 262 273 287 289 284 294 308 310 314 316 319 326 332 333 335 341 342 337 332 320 311 306 305 310 312 312 315 318 318 315 316 317 319 322 323 325 323 324 324 321 322 320 319 320 318 321 326 325 326 322 316 312 305 299 295 289 290 293 289 287 284
238 233 232 249 324 309 300 324 341 320 272 263 257 283 264 232 216 200 195 209 241 249 231 238 252 257 265 270 281 295 288 278 291 303 310 318 322 324 330 336 340 338 337 333 327 322 318 315 313 312 315 315 315 317 318 317 316 317 318 321 324 326 326 325 327 326 324 324 322 321 322 320 319 325 328 327 323 319 312 304 300 294 287 291 294 290 285 279
236 234 232 241 294 303 299 318 328 300 270 268 285 273 256 241 228 217 213 224 245 240 234 255 266 265 272 278 285 293 287 284 291 298 308 318 324 328 333 336 339 333 326 325 323 320 321 321 317 316 318 317 318 321 319 318 318 319 323 324 325 329 326 330 332 327 326 326 324 325 325 324 320 321 329 329 323 318 311 305 300 294 291 294 295 289 281 276
228 215 216 237 292 312 316 327 322 300 278 271 270 259 250 248 244 233 228 236 244 240 245 262 269 273 276 275 281 287 290 290 289 295 306 314 322 327 333 334 331 329 324 324 326 323 322 321 317 317 318 319 321 322 319 319 319 320 327 325 327 333 326 329 333 326 328 329 327 328 326 326 321 319 329 329 320 316 311 307 301 297 296 295 294 286 279 282
206 188 196 232 294 323 325 336 324 299 281 272 269 272 269 261 258 252 242 243 244 244 254 265 271 278 274 269 276 280 286 289 290 300 311 317 321 323 328 331 327 327 325 325 328 325 324 321 319 318 320 323 321 320 319 320 320 321 330 330 330 337 321 321 330 328 330 330 329 328 322 325 320 315 325 328 318 313 311 309 304 300 297 293 288 280 285 290
191 181 195 245 310 326 324 341 320 287 274 273 278 288 284 269 263 264 257 250 248 249 261 270 272 272 266 266 269 272 282 288 293 305 316 321 326 327 325 325 326 327 326 326 328 326 326 324 322 321 321 323 320 321 325 324 322 323 330 332 327 327 320 322 328 330 332 329 328 326 319 322 319 313 322 323 314 311 311 310 302 295 291 286 277 276 286 285
201 200 219 306 345 335 326 328 310 281 273 279 290 295 283 272 266 264 264 257 252 256 269 274 272 265 263 271 268 272 282 286 298 307 316 320 325 330 326 325 323 325 326 325 326 326 326 326 325 323 320 320 320 323 328 325 321 325 326 325 320 318 320 323 322 326 331 327 327 325 318 321 322 319 323 318 311 311 311 305 297 291 285 272 265 274 275 274
208 208 240 15 17 359 346 330 309 285 281 288 296 297 282 271 266 265 266 260 255 261 270 271 269 262 264 272 269 275 281 286 301 307 315 321 323 326 326 326 323 323 324 321 322 323 323 324 322 321 317 315 318 325 331 323 309 317 316 316 316 314 319 320 317 323 329 326 327 323 318 321 323 323 326 319 311 312 309 300 298 289 269 248 259 270 267 271
219 229 292 6 2 356 353 330 311 302 302 307 307 302 291 278 268 267 269 263 259 263 266 266 265 261 266 275 273 278 281 288 301 306 314 319 320 323 322 324 323 322 322 318 319 320 319 319 317 319 318 313 316 325 327 310 306 310 308 309 308 309 316 315 312 320 325 324 326 323 319 321 323 325 324 313 306 307 304 298 292 265 239 245 265 266 262 274
230 252 288 335 342 339 334 315 307 318 324 321 319 311 303 291 277 272 272 266 264 264 262 261 265 264 266 277 283 283 282 288 299 304 310 314 317 320 320 321 319 320 320 317 316 316 317 316 315 317 314 308 312 316 313 306 309 309 306 306 302 306 312 309 307 314 320 322 324 323 320 321 325 324 316 307 301 301 301 292 265 232 239 269 266 258 257 274
254 266 286 309 317 313 308 297 294 315 324 320 320 318 315 305 292 285 279 271 267 265 259 260 267 270 270 276 284 286 283 287 295 301 305 309 312 313 315 316 314 314 314 314 312 311 312 311 310 308 302 303 307 308 307 309 310 309 309 306 303 307 309 309 310 314 319 321 323 324 320 322 325 320 313 309 307 306 303 277 235 226 259 282 266 259 265 282
265 269 279 290 306 312 305 290 290 319 326 321 322 326 332 319 302 292 283 275 270 265 260 262 268 273 278 278 281 284 285 288 294 300 304 306 309 310 311 311 310 309 308 309 307 306 308 306 305 304 302 304 306 304 305 309 309 309 309 306 306 307 304 307 310 314 319 320 323 323 319 323 325 316 309 308 319 316 301 262 234 238 268 285 276 268 276 288
264 265 272 290 324 336 327 300 290 311 324 334 330 329 333 319 302 292 281 274 271 268 265 266 268 272 278 280 281 283 286 292 296 301 303 305 305 305 307 307 306 304 303 305 305 305 307 303 302 304 304 304 303 303 304 307 308 309 309 306 305 302 300 306 309 314 319 319 322 321 318 324 324 311 304 305 320 316 293 264 243 246 272 289 288 280 287 296
256 263 285 331 347 347 347 332 305 302 317 337 335 328 325 313 301 295 286 276 273 271 269 268 268 272 278 281 284 285 288 294 298 301 303 302 301 302 305 306 304 302 301 302 301 302 301 296 300 303 303 302 301 301 302 305 306 306 309 305 298 296 300 306 308 313 318 318 322 320 320 326 319 288 312 311 316 307 289 273 246 250 284 298 298 286 294 308
242 297 323 342 345 352 8 8 355 332 329 337 335 326 319 310 303 301 297 286 278 275 271 269 269 275 281 285 287 288 293 297 299 303 304 302 302 303 305 305 303 301 300 299 298 297 295 295 299 300 300 301 300 300 302 305 305 305 307 304 299 299 303 307 308 313 318 320 322 321 324 325 253 264 314 315 315 293 286 276 245 259 300 309 306 297 308 315
309 324 337 341 349 14 27 23 16 353 343 341 330 321 317 313 311 308 304 296 284 277 274 274 275 280 286 291 294 296 299 302 303 305 305 303 304 304 305 305 303 301 300 299 297 296 296 298 299 298 300 301 300 300 301 303 304 302 300 301 303 302 305 311 312 315 320 320 315 318 326 319 256 295 300 311 315 287 284 271 242 278 312 316 316 315 325 316
329 331 345 352 16 36 34 24 11 353 342 330 317 313 314 315 318 315 312 303 282 273 276 280 282 284 291 301 307 309 310 311 313 311 308 307 307 307 306 304 302 300 300 299 298 297 297 298 300 299 300 300 299 299 299 301 302 296 293 299 303 303 307 312 312 315 316 308 306 312 308 271 292 292 278 300 307 288 284 257 248 304 319 322 327 322 311 299
311 323 349 13 40 43 31 16 3 338 320 315 312 311 311 315 322 324 321 304 268 265 273 283 293 292 299 313 320 322 322 320 318 315 314 312 310 308 305 304 303 300 300 300 297 296 296 298 300 300 300 299 298 297 297 299 298 292 294 300 302 304 309 311 311 309 302 300 305 304 281 268 289 288 279 302 305 288 276 232 255 312 315 321 341 315 293 290
287 302 339 20 42 47 13 349 342 329 321 319 315 311 312 314 319 327 326 294 265 276 272 285 306 299 303 321 327 328 327 322 318 314 313 312 309 307 304 304 303 300 300 298 292 293 297 299 300 299 298 296 296 296 297 298 295 293 296 301 303 306 310 309 307 302 297 302 298 278 270 272 285 295 296 308 320 247 211 210 244 285 275 276 263 279 285 289
264 263 250 283 0 4 330 323 321 324 329 329 323 318 317 315 317 325 314 264 279 292 279 288 302 297 310 318 319 324 324 320 316 312 311 309 307 308 307 306 304 301 301 297 293 294 298 300 300 298 295 294 295 296 296 295 294 296 299 303 306 309 311 307 301 294 287 289 259 237 243 262 296 308 298 283 91 97 113 164 170 193 205 222 243 265 280 292
263 251 243 264 301 310 318 313 308 318 332 336 334 331 327 321 320 316 269 260 290 294 286 284 287 301 315 316 315 319 321 318 315 313 312 311 312 313 310 309 306 303 304 302 298 297 300 302 299 297 295 295 295 294 295 295 295 297 302 309 314 314 311 302 292 283 268 254 206 213 238 267 303 314 345 59 346 321 278 194 196 215 221 233 252 269 286 300
284 265 269 294 311 312 312 304 302 318 339 343 344 342 338 333 321 275 255 290 305 295 287 288 296 307 313 315 316 318 319 318 317 316 316 316 316 316 315 314 311 310 313 311 305 302 304 304 301 300 297 295 295 294 295 296 294 299 309 319 322 311 295 276 257 234 242 243 166 217 290 289 256 276 319 332 310 296 255 218 226 237 238 248 260 276 295 306
301 297 307 316 320 318 311 303 301 310 334 345 344 345 347 339 304 251 276 307 310 294 298 303 305 309 312 314 316 318 318 318 319 319 319 320 318 316 316 315 312 313 313 308 305 305 304 305 307 305 300 298 299 298 301 303 302 306 316 323 316 301 288 266 240 238 269 295 150 281 309 288 265 275 292 298 291 277 246 232 242 250 255 263 268 283 301 309
329 329 334 335 324 316 308 303 297 300 322 335 336 342 348 334 283 269 290 301 295 296 304 305 305 309 313 315 317 319 320 321 321 321 321 320 319 318 316 313 312 307 298 300 308 309 304 307 312 308 307 306 300 299 302 304 305 307 310 309 296 306 310 291 289 285 286 297 270 296 303 291 284 282 273 287 292 269 240 238 250 260 272 283 287 296 305 309
323 335 337 336 323 313 306 300 291 295 314 324 330 338 339 311 293 298 300 298 293 298 304 306 308 311 313 316 320 322 325 324 323 323 323 323 324 322 317 316 317 310 308 313 312 305 297 298 304 307 312 311 302 300 294 293 299 299 296 291 278 285 288 287 306 305 298 304 293 291 292 284 292 295 289 289 283 262 246 246 263 287 301 305 307 310 312 313
285 312 323 324 318 310 302 295 290 295 308 316 324 331 322 297 304 308 305 303 301 303 308 311 313 315 318 322 323 326 328 326 324 324 325 327 326 320 316 318 321 318 322 321 305 301 294 284 291 300 305 306 302 298 294 297 301 292 296 302 267 260 268 281 291 286 289 301 280 256 261 277 292 285 279 271 246 256 277 265 280 302 311 313 313 312 312 313
273 292 307 312 313 307 299 293 290 294 301 310 319 320 304 297 305 306 304 305 307 310 314 318 320 323 325 326 323 327 329 325 325 328 328 328 327 322 322 323 319 317 317 310 304 307 296 279 287 297 301 304 302 297 294 295 291 287 296 290 262 272 278 280 287 277 269 282 265 238 251 283 300 269 241 244 258 276 285 280 283 296 308 314 311 308 309 314
269 282 296 305 310 304 295 290 290 294 300 307 312 308 302 304 307 304 303 306 309 313 319 323 324 322 322 320 319 325 330 326 326 330 327 326 325 323 325 322 316 315 314 312 306 302 296 294 298 303 304 305 303 298 295 291 289 288 286 281 284 295 289 270 282 287 274 274 273 263 260 281 300 269 223 251 274 279 289 292 296 304 312 313 309 307 311 317
270 281 293 305 310 303 295 292 292 297 301 304 307 306 304 306 306 304 305 307 310 314 318 320 319 316 317 317 317 323 328 326 324 326 326 324 321 319 321 319 317 316 316 318 309 302 304 302 302 304 304 305 305 301 300 299 297 291 284 291 298 298 284 257 256 297 299 283 284 281 262 267 282 269 246 270 283 292 301 305 309 314 314 311 309 309 311 316
272 282 293 304 309 305 300 299 298 300 301 303 306 306 304 305 307 308 308 309 312 314 315 317 315 313 315 317 318 321 325 325 323 324 324 320 315 316 318 316 316 315 314 315 309 306 308 299 296 301 300 303 305 303 303 302 302 303 298 299 299 283 275 271 264 277 288 286 290 282 249 261 277 254 244 278 303 313 315 314 315 314 310 308 308 308 311 319
274 282 293 302 305 305 303 303 301 301 302 302 303 304 304 306 308 309 309 310 311 312 314 316 315 313 315 318 319 320 322 324 325 323 317 314 316 317 317 315 314 313 312 312 310 310 306 285 281 297 303 306 306 302 301 296 296 304 303 298 299 291 286 283 275 269 266 275 293 289 272 272 282 280 279 294 318 326 321 316 312 309 307 307 306 308 316 324
277 284 291 297 301 303 307 308 307 306 305 305 306 308 308 309 310 310 309 310 311 312 314 315 315 314 316 318 319 321 322 323 326 323 315 316 321 317 312 312 312 312 312 313 313 311 305 281 274 286 295 298 296 294 295 293 289 292 288 277 282 288 292 293 283 263 251 253 272 289 287 281 286 289 288 306 331 330 316 310 308 308 309 308 308 312 321 327
273 281 288 294 299 305 309 312 312 312 314 313 313 313 312 311 311 310 311 313 314 315 317 317 317 317 318 319 320 321 322 322 323 321 315 316 318 313 309 310 311 312 313 314 313 308 303 290 281 284 291 294 298 299 294 288 286 292 295 293 296 293 281 275 281 289 275 261 271 278 274 281 290 286 287 323 332 320 307 306 308 309 309 309 311 317 324 327
272 281 289 297 303 307 310 313 314 315 317 317 316 316 315 313 312 313 316 319 319 320 322 322 321 321 323 323 322 322 324 324 322 320 316 317 318 315 312 311 312 313 313 313 311 308 307 300 289 292 298 295 296 300 288 276 293 314 307 305 306 300 284 273 273 282 286 275 272 274 269 280 296 297 313 327 325 308 302 305 306 308 309 312 317 322 325 326
285 292 300 305 309 312 313 313 313 314 315 316 317 315 314 314 316 319 321 323 323 324 326 326 325 325 325 324 324 325 326 323 317 316 317 317 319 316 314 314 313 313 313 310 308 307 304 298 294 302 309 300 291 295 286 294 322 319 305 302 303 300 293 283 273 273 275 265 255 261 269 278 295 307 314 321 315 303 303 305 306 309 313 315 319 323 326 327
302 306 311 314 315 316 314 312 311 311 313 315 316 316 316 318 321 323 325 327 328 328 329 328 327 326 326 326 325 324 324 319 311 314 319 318 317 316 314 315 313 312 312 308 305 303 294 287 287 290 295 297 300 305 298 298 304 303 297 297 298 298 293 287 280 268 264 267 258 257 273 285 296 307 314 315 306 302 306 309 311 314 315 317 321 325 327 325
314 315 316 318 318 317 315 314 314 314 316 319 320 321 321 324 327 328 331 333 333 333 332 330 330 328 327 327 325 324 326 322 313 314 318 317 316 316 315 315 314 312 311 308 305 301 294 292 291 280 274 277 285 291 291 292 294 295 292 288 289 290 290 287 278 258 274 297 284 268 285 299 307 314 319 316 305 303 309 313 315 316 317 319 324 326 323 320
317 317 317 318 319 316 313 316 317 319 323 325 327 328 328 331 334 334 336 338 336 335 333 332 332 330 329 327 325 326 327 323 317 315 317 318 317 318 317 316 315 313 312 310 308 302 297 297 296 291 288 286 287 290 292 291 291 289 284 281 282 284 284 279 265 270 304 302 284 292 309 310 315 321 322 315 308 307 312 315 317 317 318 321 324 322 319 321
316 317 316 316 317 314 315 320 323 326 331 332 333 335 336 338 339 338 338 338 337 336 334 334 333 330 330 327 325 325 323 319 319 320 321 321 320 320 320 319 317 315 314 312 309 306 300 297 299 300 299 297 297 300 300 294 287 284 282 282 279 273 268 263 268 298 319 299 295 312 316 313 318 322 312 302 305 309 313 315 314 314 315 319 322 321 322 326
318 318 318 318 320 321 323 329 332 333 336 339 340 341 341 341 341 340 339 337 338 339 336 333 331 330 330 327 323 322 320 319 321 324 325 324 323 323 322 320 319 316 314 311 308 308 301 295 301 304 301 302 306 308 309 300 295 296 291 280 265 254 257 264 279 308 319 311 312 319 320 321 323 310 297 301 306 309 311 311 309 311 315 320 323 323 324 328
326 327 328 328 329 331 334 337 338 339 342 343 344 345 345 344 343 342 341 338 338 339 336 333 332 330 329 326 324 324 323 322 323 324 327 325 323 324 321 318 316 312 310 309 306 306 296 292 301 305 303 308 312 315 318 313 310 307 287 266 255 251 260 275 292 314 320 318 319 322 323 325 320 306 304 308 308 308 308 308 309 314 321 327 327 322 324 328
337 337 336 337 339 340 343 344 344 345 348 348 348 349 348 347 345 343 342 339 338 338 337 336 334 334 333 330 329 328 327 327 325 324 324 321 319 320 315 311 309 306 305 305 303 303 296 295 305 310 308 309 309 315 321 313 310 301 255 241 255 257 268 289 299 313 321 321 322 323 322 318 314 311 310 308 307 310 312 311 314 320 328 332 325 320 324 327
345 343 344 346 349 351 352 352 352 354 355 354 351 350 349 348 347 345 343 343 343 342 342 341 340 339 338 335 332 331 328 326 324 322 321 318 316 315 310 306 304 300 301 301 300 302 300 301 307 309 307 303 299 310 317 307 305 291 230 238 256 256 270 290 292 301 314 318 320 318 315 313 312 309 308 307 310 314 315 315 320 328 333 328 320 321 325 326